Location: C�an Torras
(41.5052°N, 1.9280°E)
Time: 16:19:55
(UTC+00:00)

X-37B - Visible Passes

Search period start: 22 April 2021 00:00
Search period end: 02 May 2021 00:00
Orbit: 380 x 394 km, 45.0° (Epoch: 07 April)

Date Brightness Start Highest point End Pass type
(mag) Time Alt. Az. Time Alt. Az. Time Alt. Az.
22 Apr 2.3 02:37:13 33° NE 02:37:13 33° NE 02:39:17 10° ENE visible
22 Apr 1.6 04:10:01 10° WNW 04:13:06 45° N 04:16:11 10° E visible
23 Apr 1.7 03:13:35 30° NW 03:14:38 41° N 03:17:41 10° ENE visible
24 Apr 3.0 02:17:43 23° NE 02:17:43 23° NE 02:19:13 10° ENE visible
24 Apr 1.2 03:50:01 11° WNW 03:53:05 56° NNE 03:56:13 10° E visible
25 Apr 1.5 02:54:14 42° NNW 02:54:37 45° N 02:57:43 10° E visible
26 Apr 3.6 01:58:36 14° ENE 01:58:36 14° ENE 01:59:12 10° ENE visible
26 Apr 0.6 03:30:53 19° WNW 03:33:01 81° NNE 03:36:11 10° ESE visible
27 Apr 1.9 02:35:26 40° ENE 02:35:26 40° ENE 02:37:45 10° E visible
27 Apr 1.3 04:08:12 10° W 04:11:10 35° SSW 04:14:07 10° SE visible
28 Apr 0.5 03:12:36 59° SW 03:12:52 63° SSW 03:16:01 10° ESE visible
29 Apr 2.0 03:50:11 19° SW 03:50:54 20° SW 03:53:19 10° SSE visible
01 May 1.6 20:03:00 10° SSW 20:05:46 26° SSE 20:06:05 26° SE visible
